When you browse on this site, cookies collect data to enhance your experience and personalize the content and advertising you see.
Visit our Privacy Policy to learn more. By continuing to use the site, you agree to this use of cookies and data.
  • In Germany
  • List of Countries
  • For 7 days
  • Water Temperature
  • Weather Map
  • Weather Widgets
  • user-avatar
    Login

    Hourly Weather Visim

    Today, 26 February, Wednesday

    Time Temperature Precipitation Wind Pressure Humidity
    00:00 -8°C° 0 mm 2 mps 726 mmHg 95%
    01:00 -9°C° 0 mm 3 mps 726 mmHg 95%
    02:00 -8°C° 0 mm 3 mps 725 mmHg 95%
    03:00 -8°C° 0 mm 3 mps 725 mmHg 94%
    04:00 -7°C° 0 mm 3 mps 725 mmHg 94%
    05:00 -7°C° 0 mm 3 mps 724 mmHg 94%
    06:00 -8°C° 0 mm 3 mps 723 mmHg 94%
    07:00 -8°C° 0 mm 3 mps 722 mmHg 95%
    08:00 -7°C° 0.1 mm 3 mps 722 mmHg 94%
    09:00 -7°C° 0.1 mm 3 mps 721 mmHg 93%
    10:00 -7°C° 0.1 mm 3 mps 721 mmHg 93%
    11:00 -6°C° 0.3 mm 3 mps 720 mmHg 93%
    12:00 -5°C° 0.3 mm 3 mps 720 mmHg 94%
    13:00 -5°C° 0.3 mm 3 mps 719 mmHg 94%
    14:00 -4°C° 0.9 mm 2 mps 719 mmHg 95%
    15:00 -4°C° 0.9 mm 2 mps 719 mmHg 95%
    16:00 -3°C° 0.9 mm 1 mps 718 mmHg 96%
    17:00 -3°C° 0.8 mm 1 mps 718 mmHg 96%
    18:00 -3°C° 0.8 mm 1 mps 718 mmHg 96%
    19:00 -4°C° 0.8 mm 1 mps 718 mmHg 96%
    20:00 -6°C° 0.7 mm 2 mps 719 mmHg 96%
    21:00 -6°C° 0.7 mm 2 mps 719 mmHg 96%
    22:00 -6°C° 0.7 mm 2 mps 719 mmHg 96%
    23:00 -6°C° 0.4 mm 3 mps 720 mmHg 95%

    Tomorrow, 27 February, Thursday

    Time Temperature Precipitation Wind Pressure Humidity
    00:00 -7°C° 0.4 mm 4 mps 720 mmHg 94%
    01:00 -6°C° 0.4 mm 5 mps 721 mmHg 93%
    02:00 -7°C° 0 mm 5 mps 722 mmHg 92%
    03:00 -7°C° 0 mm 5 mps 722 mmHg 90%
    04:00 -8°C° 0 mm 6 mps 723 mmHg 89%
    05:00 -8°C° 0 mm 5 mps 724 mmHg 90%
    06:00 -10°C° 0 mm 5 mps 725 mmHg 91%
    07:00 -12°C° 0 mm 5 mps 725 mmHg 92%
    08:00 -11°C° 0 mm 5 mps 726 mmHg 91%
    09:00 -11°C° 0 mm 5 mps 726 mmHg 91%
    10:00 -11°C° 0 mm 5 mps 727 mmHg 91%
    11:00 -8°C° 0 mm 4 mps 727 mmHg 88%
    12:00 -7°C° 0 mm 4 mps 727 mmHg 84%
    13:00 -5°C° 0 mm 4 mps 728 mmHg 80%
    14:00 -4°C° 0 mm 4 mps 728 mmHg 84%
    15:00 -4°C° 0 mm 4 mps 728 mmHg 87%
    16:00 -4°C° 0 mm 4 mps 728 mmHg 91%
    17:00 -5°C° 0 mm 4 mps 728 mmHg 92%
    18:00 -5°C° 0 mm 4 mps 729 mmHg 92%
    19:00 -7°C° 0 mm 4 mps 729 mmHg 93%
    20:00 -6°C° 0.1 mm 3 mps 729 mmHg 94%
    21:00 -5°C° 0.1 mm 3 mps 729 mmHg 95%
    22:00 -4°C° 0.1 mm 2 mps 730 mmHg 96%
    23:00 -4°C° 0.1 mm 2 mps 730 mmHg 96%

    Day after tomorrow, 28 February, Friday

    Time Temperature Precipitation Wind Pressure Humidity
    00:00 -3°C° 0.1 mm 2 mps 730 mmHg 97%
    01:00 -2°C° 0.1 mm 2 mps 730 mmHg 97%
    02:00 -2°C° 0.2 mm 3 mps 730 mmHg 97%
    03:00 -1°C° 0.2 mm 3 mps 731 mmHg 97%
    04:00 -1°C° 0.2 mm 4 mps 731 mmHg 97%
    05:00 -1°C° 0.1 mm 3 mps 731 mmHg 97%
    06:00 -2°C° 0.1 mm 3 mps 731 mmHg 96%
    07:00 -2°C° 0.1 mm 3 mps 730 mmHg 95%
    08:00 -2°C° 0.3 mm 3 mps 730 mmHg 96%
    09:00 -1°C° 0.3 mm 3 mps 730 mmHg 97%
    10:00 -2°C° 0.3 mm 4 mps 730 mmHg 98%
    11:00 -1°C° 0.2 mm 4 mps 731 mmHg 98%
    12:00 -1°C° 0.2 mm 5 mps 731 mmHg 98%
    13:00 -1°C° 0.2 mm 5 mps 731 mmHg 98%
    14:00 -1°C° 0 mm 5 mps 731 mmHg 97%
    15:00 -1°C° 0 mm 4 mps 732 mmHg 97%
    16:00 -1°C° 0 mm 4 mps 732 mmHg 96%
    17:00 -1°C° 0 mm 4 mps 732 mmHg 95%
    18:00 0°C° 0 mm 3 mps 732 mmHg 95%
    19:00 0°C° 0 mm 3 mps 733 mmHg 94%
    20:00 0°C° 0 mm 3 mps 733 mmHg 94%
    21:00 0°C° 0 mm 3 mps 733 mmHg 94%
    22:00 -1°C° 0 mm 3 mps 734 mmHg 94%
    23:00 -1°C° 0 mm 3 mps 734 mmHg 93%

    29 February, Saturday

    Time Temperature Precipitation Wind Pressure Humidity
    00:00 -2°C° 0 mm 3 mps 734 mmHg 92%
    01:00 -2°C° 0 mm 3 mps 733 mmHg 91%
    02:00 -2°C° 0 mm 3 mps 733 mmHg 90%
    03:00 -2°C° 0 mm 3 mps 733 mmHg 88%
    04:00 -4°C° 0 mm 3 mps 733 mmHg 87%
    05:00 -4°C° 0 mm 3 mps 733 mmHg 86%
    06:00 -4°C° 0 mm 3 mps 732 mmHg 86%
    07:00 -3°C° 0 mm 2 mps 732 mmHg 85%
    08:00 -2°C° 0 mm 2 mps 732 mmHg 83%
    09:00 -1°C° 0 mm 2 mps 731 mmHg 82%
    10:00 +1°C° 0 mm 2 mps 731 mmHg 80%
    11:00 +1°C° 0 mm 2 mps 731 mmHg 85%
    12:00 +1°C° 0 mm 2 mps 731 mmHg 91%
    13:00 +2°C° 0 mm 2 mps 730 mmHg 96%
    14:00 +1°C° 0 mm 2 mps 730 mmHg 93%
    15:00 +1°C° 0 mm 2 mps 729 mmHg 91%
    16:00 +1°C° 0 mm 2 mps 729 mmHg 88%
    17:00 -1°C° 0 mm 2 mps 729 mmHg 88%
    18:00 -1°C° 0 mm 3 mps 729 mmHg 87%
    19:00 -2°C° 0 mm 3 mps 728 mmHg 87%
    20:00 -4°C° 0 mm 3 mps 728 mmHg 89%
    21:00 -5°C° 0 mm 3 mps 728 mmHg 90%
    22:00 -6°C° 0 mm 3 mps 728 mmHg 92%
    23:00 -6°C° 0 mm 3 mps 729 mmHg 92%

    1 March, Sunday

    Time Temperature Precipitation Wind Pressure Humidity
    00:00 -6°C° 0 mm 3 mps 729 mmHg 93%
    01:00 -5°C° 0 mm 4 mps 729 mmHg 93%
    02:00 -5°C° 0 mm 4 mps 729 mmHg 93%
    03:00 -5°C° 0 mm 4 mps 730 mmHg 93%
    04:00 -5°C° 0 mm 4 mps 730 mmHg 93%
    05:00 -5°C° 0 mm 3 mps 730 mmHg 93%
    06:00 -5°C° 0 mm 3 mps 731 mmHg 93%
    07:00 -5°C° 0 mm 3 mps 731 mmHg 93%
    08:00 -4°C° 0 mm 3 mps 732 mmHg 92%
    09:00 -4°C° 0 mm 3 mps 732 mmHg 91%
    10:00 -2°C° 0 mm 3 mps 733 mmHg 90%
    11:00 -2°C° 0 mm 3 mps 733 mmHg 90%
    12:00 -2°C° 0 mm 3 mps 733 mmHg 90%
    13:00 -1°C° 0 mm 3 mps 734 mmHg 90%
    14:00 -2°C° 0 mm 2 mps 734 mmHg 90%
    15:00 -2°C° 0 mm 2 mps 734 mmHg 89%
    16:00 -2°C° 0 mm 2 mps 734 mmHg 89%
    17:00 -3°C° 0 mm 2 mps 734 mmHg 90%
    18:00 -2°C° 0 mm 1 mps 735 mmHg 92%
    19:00 -3°C° 0 mm 1 mps 735 mmHg 94%
    20:00 -4°C° 0 mm 1 mps 735 mmHg 94%
    21:00 -6°C° 0 mm 1 mps 735 mmHg 95%
    22:00 -6°C° 0 mm 1 mps 735 mmHg 96%
    23:00 -7°C° 0 mm 1 mps 736 mmHg 96%

    2 March, Monday

    Time Temperature Precipitation Wind Pressure Humidity
    00:00 -7°C° 0 mm 1 mps 736 mmHg 96%
    01:00 -7°C° 0 mm 1 mps 736 mmHg 96%
    02:00 -7°C° 0 mm 1 mps 736 mmHg 96%
    03:00 -8°C° 0 mm 1 mps 736 mmHg 96%
    04:00 -8°C° 0 mm 1 mps 737 mmHg 96%
    05:00 -8°C° 0 mm 1 mps 737 mmHg 96%
    06:00 -9°C° 0 mm 0 mps 737 mmHg 96%
    07:00 -9°C° 0 mm 0 mps 737 mmHg 96%
    08:00 -7°C° 0 mm 0 mps 737 mmHg 94%
    09:00 -5°C° 0 mm 0 mps 738 mmHg 92%
    10:00 -2°C° 0 mm 1 mps 738 mmHg 90%
    11:00 -1°C° 0 mm 1 mps 738 mmHg 90%
    12:00 0°C° 0 mm 1 mps 738 mmHg 91%
    13:00 +1°C° 0 mm 1 mps 738 mmHg 92%
    14:00 +1°C° 0 mm 1 mps 738 mmHg 92%
    15:00 +1°C° 0 mm 1 mps 738 mmHg 91%
    16:00 +1°C° 0 mm 1 mps 738 mmHg 91%
    17:00 -1°C° 0 mm 1 mps 739 mmHg 92%
    18:00 -4°C° 0 mm 0 mps 739 mmHg 93%
    19:00 -6°C° 0 mm 0 mps 739 mmHg 94%
    20:00 -6°C° 0 mm 0 mps 739 mmHg 93%
    21:00 -6°C° 0 mm 1 mps 739 mmHg 92%
    22:00 -6°C° 0 mm 1 mps 739 mmHg 91%
    23:00 -7°C° 0 mm 1 mps 739 mmHg 90%
    Show more